This is the latest recevied weather packets stored in our database for station/object IQ5KG. If no packets are shown the sender has not sent any weather packets the latest 10 day(s).
| Time | Temp. | Humidity | Pressure | Rain* | Wind** | Luminosity | Snow |
|---|---|---|---|---|---|---|---|
| 1777554116 | 20° C | 41% | 1020.1 hPa | 0 mm | - | - | - |
| 1777553216 | 19.44° C | 42% | 1020.4 hPa | 0 mm | - | - | - |
| 1777552315 | 20° C | 42% | 1020.7 hPa | 0 mm | - | - | - |
| 1777551415 | 19.44° C | 43% | 1020.5 hPa | 0 mm | - | - | - |
| 1777550516 | 19.44° C | 44% | 1020.7 hPa | 0 mm | - | - | - |
| 1777549615 | 19.44° C | 43% | 1020.4 hPa | 0 mm | - | - | - |
| 1777548715 | 19.44° C | 44% | 1020.4 hPa | 0 mm | - | - | - |
| 1777547815 | 19.44° C | 45% | 1020.5 hPa | 0 mm | - | - | - |
| 1777546916 | 18.89° C | 45% | 1020.6 hPa | 0 mm | - | - | - |
| 1777546014 | 18.89° C | 45% | 1020.4 hPa | 0 mm | - | - | - |
| 1777545114 | 18.89° C | 46% | 1020.4 hPa | 0 mm | - | - | - |
| 1777544215 | 18.89° C | 45% | 1020.5 hPa | 0 mm | - | - | - |
| 1777543314 | 18.89° C | 46% | 1020.7 hPa | 0 mm | - | - | - |
| 1777542414 | 18.33° C | 46% | 1020.9 hPa | 0 mm | - | - | - |
| 1777541515 | 18.89° C | 46% | 1020.7 hPa | 0 mm | - | - | - |
| 1777540614 | 18.33° C | 47% | 1020.3 hPa | 0 mm | - | - | - |
| 1777539714 | 17.78° C | 46% | 1020.4 hPa | 0 mm | - | - | - |
| 1777538813 | 17.78° C | 46% | 1020.4 hPa | 0 mm | - | - | - |
| 1777537912 | 17.78° C | 46% | 1020.2 hPa | 0 mm | - | - | - |
| 1777537013 | 17.78° C | 45% | 1020.4 hPa | 0 mm | - | - | - |
| 1777536114 | 17.78° C | 47% | 1019.9 hPa | 0 mm | - | - | - |
| 1777535212 | 17.22° C | 47% | 1020 hPa | 0 mm | - | - | - |
| 1777534312 | 17.22° C | 51% | 1019.9 hPa | 0 mm | - | - | - |
| 1777533412 | 17.78° C | 53% | 1019.7 hPa | 0 mm | - | - | - |
| 1777532513 | 17.78° C | 54% | 1019.8 hPa | 0 mm | - | - | - |
* Rain latest hour (hover to see other rain measurements)
** Current wind speed in m/s (hover to see current wind gust speed)